Date String (YYYY-MM-DD hh:mm:ss) UTC,Instrument flags,Ambient pressure (hPa),Sample flow (lpm),Bypass flow (lpm),Sample temperature (°C),Ambient temperature (°C),ASC tube jacket temperature (°C),LED temperature (°C),Box temperature (°C),Sample RH (%),Span deviation,Mass concentration (μg/m³),Mass concentration (μg/m³),Mass concentration (μg/m³)
DateTimeUTC,F1_M11,P_M11,Q1_M11,Q2_M11,T1_M11,T2_M11,T3_M11,T4_M11,T5_M11,U1_M11,ZSPAN_M11,X0_M11,X2_M11,X1_M11
2022-05-06 06:00:00,,0822.4,4.99,0.00,30.2,29.2,00.0,39.1,31.9,17.3,0000.0,0015.36,0006.51,0005.10
2022-05-06 06:01:00,,0822.3,5.00,0.00,30.2,29.2,00.0,39.1,31.9,17.3,0000.0,0015.28,0006.52,0005.12
2022-05-06 06:02:00,,0822.3,5.01,0.00,30.2,29.2,00.0,39.1,31.9,17.3,0000.0,0014.94,0006.54,0005.14
2022-05-06 06:03:00,,0822.3,4.98,0.00,30.1,29.2,00.0,39.1,31.9,17.2,0000.0,0014.65,0006.52,0005.14
2022-05-06 06:04:00,,0822.3,5.00,0.00,30.1,29.2,00.0,39.1,31.9,17.2,0000.0,0014.30,0006.47,0005.12
2022-05-06 06:05:00,,0822.4,5.01,0.00,30.1,29.2,00.0,39.1,31.9,17.2,0000.0,0013.61,0006.46,0005.09
2022-05-06 06:06:00,,0822.5,4.99,0.00,30.1,29.2,00.0,39.1,31.9,17.8,0000.0,0013.40,0006.46,0005.09
2022-05-06 06:07:00,,0822.5,5.00,0.00,30.1,29.2,00.0,39.1,31.9,17.5,0000.0,0012.63,0006.36,0005.06
2022-05-06 06:08:00,,0822.4,5.00,0.00,30.1,29.2,00.0,39.1,31.8,17.4,0000.0,0011.98,0006.34,0005.03
2022-05-06 06:09:00,,0822.5,5.01,0.00,30.1,29.1,00.0,39.1,31.7,17.4,0000.0,0011.64,0006.24,0004.98
2022-05-06 06:10:00,,0822.4,5.01,0.00,30.0,29.1,00.0,39.1,31.7,17.6,0000.0,0011.99,0006.24,0004.96
2022-05-06 06:11:00,,0822.4,5.00,0.00,30.0,29.0,00.0,39.1,31.7,18.0,0000.0,0011.95,0006.28,0004.97
2022-05-06 06:12:00,,0822.3,4.99,0.00,30.0,29.0,00.0,39.1,31.7,18.1,0000.0,0011.82,0006.28,0004.99
2022-05-06 06:13:00,,0822.3,5.02,0.00,30.0,29.0,00.0,39.0,31.7,18.0,0000.0,0011.65,0006.27,0004.99
2022-05-06 06:14:00,,0822.3,5.00,0.00,30.0,29.1,00.0,39.0,31.7,18.0,0000.0,0011.83,0006.29,0004.99
2022-05-06 06:15:00,,0822.3,4.99,0.00,30.0,29.1,00.0,39.0,31.7,17.9,0000.0,0012.23,0006.34,0005.01
2022-05-06 06:16:00,,0822.4,5.01,0.00,30.0,29.1,00.0,39.0,31.7,18.0,0000.0,0012.29,0006.37,0005.03
2022-05-06 06:17:00,,0822.5,5.01,0.00,30.0,29.1,00.0,39.0,31.8,17.9,0000.0,0012.53,0006.34,0005.02
2022-05-06 06:18:00,,0822.4,5.00,0.00,30.0,29.1,00.0,39.0,31.8,17.9,0000.0,0012.94,0006.36,0005.02
2022-05-06 06:19:00,,0822.4,5.00,0.00,30.0,29.1,00.0,39.0,31.8,17.9,0000.0,0013.91,0006.39,0005.04
2022-05-06 06:20:00,,0822.4,5.00,0.00,30.0,29.1,00.0,39.0,31.8,18.0,0000.0,0014.19,0006.42,0005.06
2022-05-06 06:21:00,,0822.4,4.99,0.00,30.1,29.1,00.0,39.0,31.8,17.9,0000.0,0013.94,0006.42,0005.08
2022-05-06 06:22:00,,0822.4,5.01,0.00,30.1,29.2,00.0,39.0,31.8,18.0,0000.0,0014.16,0006.39,0005.06
2022-05-06 06:23:00,,0822.4,4.98,0.00,30.1,29.2,00.0,39.0,31.8,17.9,0000.0,0014.04,0006.33,0005.04
2022-05-06 06:24:00,,0822.4,5.01,0.00,30.1,29.2,00.0,39.0,31.8,17.9,0000.0,0013.92,0006.30,0005.03
2022-05-06 06:25:00,,0822.4,5.01,0.00,30.1,29.2,00.0,39.0,31.9,18.1,0000.0,0013.92,0006.29,0005.03
2022-05-06 06:26:00,,0822.4,5.01,0.00,30.1,29.2,00.0,39.0,31.9,18.1,0000.0,0013.55,0006.26,0005.02
2022-05-06 06:27:00,,0822.4,4.99,0.00,30.1,29.2,00.0,39.0,31.9,18.1,0000.0,0013.53,0006.22,0005.01
2022-05-06 06:28:00,,0822.4,5.00,0.00,30.1,29.2,00.0,39.0,31.9,18.1,0000.0,0013.89,0006.22,0005.01
2022-05-06 06:29:00,,0822.3,5.01,0.00,30.1,29.2,00.0,39.1,31.9,18.1,0000.0,0013.88,0006.23,0005.01
2022-05-06 06:30:00,,0822.3,4.98,0.00,30.1,29.2,00.0,39.1,31.9,18.1,0000.0,0013.26,0006.28,0005.02
2022-05-06 06:31:00,,0822.4,5.00,0.00,30.1,29.2,00.0,39.1,31.9,18.2,0000.0,0014.01,0006.29,0005.03
2022-05-06 06:32:00,,0822.4,5.00,0.00,30.1,29.2,00.0,39.1,31.9,18.1,0000.0,0015.01,0006.28,0005.03
2022-05-06 06:33:00,,0822.3,5.00,0.00,30.1,29.2,00.0,39.1,31.9,18.5,0000.0,0014.33,0006.28,0005.05
2022-05-06 06:34:00,,0822.3,4.99,0.00,30.1,29.2,00.0,39.1,31.9,18.6,0000.0,0014.32,0006.29,0005.08
2022-05-06 06:35:00,,0822.3,5.00,0.00,30.1,29.2,00.0,39.1,31.9,18.4,0000.0,0014.40,0006.33,0005.11
2022-05-06 06:36:00,,0822.3,4.99,0.00,30.1,29.2,00.0,39.1,31.9,18.2,0000.0,0014.79,0006.31,0005.12
2022-05-06 06:37:00,,0822.3,4.99,0.00,30.1,29.2,00.0,39.1,31.9,18.0,0000.0,0015.38,0006.33,0005.13
2022-05-06 06:38:00,,0822.3,5.01,0.00,30.1,29.2,00.0,39.1,31.9,18.3,0000.0,0015.41,0006.39,0005.17
2022-05-06 06:39:00,,0822.3,5.01,0.00,30.1,29.2,00.0,39.1,31.9,18.3,0000.0,0015.99,0006.42,0005.22
2022-05-06 06:40:00,,0822.2,4.99,0.00,30.1,29.2,00.0,39.1,31.9,18.4,0000.0,0016.53,0006.48,0005.28
2022-05-06 06:41:00,,0822.2,5.01,0.00,30.1,29.2,00.0,39.1,31.9,18.4,0000.0,0016.57,0006.48,0005.33
2022-05-06 06:42:00,,0822.2,5.01,0.00,30.1,29.2,00.0,39.1,31.9,18.3,0000.0,0015.94,0006.53,0005.38
2022-05-06 06:43:00,,0822.1,5.00,0.00,30.1,29.2,00.0,39.1,31.8,18.5,0000.0,0014.62,0006.57,0005.44
2022-05-06 06:44:00,,0822.2,5.00,0.00,30.1,29.2,00.0,39.1,31.8,18.5,0000.0,0014.80,0006.66,0005.50
2022-05-06 06:45:00,,0822.1,4.99,0.00,30.1,29.2,00.0,39.1,31.9,18.5,0000.0,0015.22,0006.75,0005.53
2022-05-06 06:46:00,,0822.1,5.00,0.00,30.1,29.2,00.0,39.1,31.9,18.5,0000.0,0015.04,0006.74,0005.56
2022-05-06 06:47:00,,0822.1,5.00,0.00,30.1,29.2,00.0,39.1,31.9,18.5,0000.0,0015.15,0006.77,0005.60
2022-05-06 06:48:00,,0822.1,5.00,0.00,30.1,29.2,00.0,39.1,31.9,18.4,0000.0,0014.57,0006.83,0005.65
2022-05-06 06:49:00,,0822.1,4.99,0.00,30.1,29.2,00.0,39.1,31.9,16.9,0000.0,0014.53,0006.78,0005.61
2022-05-06 06:50:00,,0822.2,5.00,0.00,30.1,29.2,00.0,39.1,31.9,17.8,0000.0,0014.22,0006.75,0005.58
2022-05-06 06:51:00,,0822.2,5.00,0.00,30.1,29.2,00.0,39.1,31.9,18.0,0000.0,0013.18,0006.73,0005.57
2022-05-06 06:52:00,,0822.2,5.01,0.00,30.1,29.2,00.0,39.1,31.9,18.1,0000.0,0012.51,0006.71,0005.54
2022-05-06 06:53:00,,0822.1,5.00,0.00,30.1,29.1,00.0,39.1,31.7,17.9,0000.0,0012.53,0006.65,0005.52
2022-05-06 06:54:00,,0822.2,4.98,0.00,30.1,29.1,00.0,39.1,31.8,17.8,0000.0,0012.63,0006.63,0005.47
2022-05-06 06:55:00,,0822.3,5.00,0.00,30.1,29.1,00.0,39.1,31.8,17.7,0000.0,0012.59,0006.57,0005.42
2022-05-06 06:56:00,,0822.3,5.01,0.00,30.0,29.0,00.0,39.1,31.7,18.0,0000.0,0012.41,0006.46,0005.37
2022-05-06 06:57:00,,0822.3,5.01,0.00,30.0,29.0,00.0,39.0,31.6,18.1,0000.0,0013.21,0006.49,0005.35
2022-05-06 06:58:00,,0822.2,4.98,0.00,29.9,29.0,00.0,39.0,31.6,18.1,0000.0,0013.17,0006.51,0005.32
2022-05-06 06:59:00,,0822.2,5.00,0.00,29.9,29.0,00.0,39.0,31.6,18.3,0000.0,0012.68,0006.48,0005.30
